www.pogodaiklimat.ru
ПОГОДА в Куршиме

Архив погоды в Куршиме (Восточно-Казахстанская область, Казахстан)

Время
(UTC), дата
18 17.05
21 17.05
00 18.05
03 18.05
06 18.05
09 18.05
12 18.05
15 18.05
18 18.05
21 18.05
00 19.05
03 19.05
06 19.05
09 19.05
12 19.05
15 19.05
18 19.05
21 19.05
00 20.05
03 20.05
06 20.05
09 20.05
12 20.05
15 20.05
18 20.05
21 20.05
00 21.05
03 21.05
06 21.05
09 21.05
12 21.05
15 21.05
18 21.05
21 21.05
00 22.05
03 22.05
06 22.05
09 22.05
12 22.05
15 22.05
18 22.05
21 22.05
00 23.05
03 23.05
06 23.05
09 23.05
12 23.05
15 23.05
18 23.05
21 23.05
00 24.05
03 24.05
06 24.05
09 24.05
12 24.05
15 24.05
Ветер
(напр.,м/с)
Видим. Явления Облачность Т
(С)
Тd
(С)
f
(%)
Тe
(С)
Тes
(С)
Комфортность P
(гПа)
Po
(гПа)
Тmin
(С)
Tmax
(С)
R
(мм)
R24
(мм)
S
(см)
штиль 0 н/о ясно +16.6 +9.0 61 +17 +17 1010.7 960.8 +28.0
В 1 н/о ясно +13.8 +8.5 70 +14 +14 1011.2 960.8
СВ 1 50 км ясно +15.7 +9.9 68 +16 +17 1011.2 961.2
З 1 50 км ясно +23.0 +8.6 40 +24 +35 комфорт 1010.2 961.4
З 2 50 км ясно +28.0 +9.2 31 +28 +45 жарко 1008.5 960.6 +13.4
С 3 50 км ясно +31.4 +7.9 23 +30 +40 жарко 1006.5 959.2
З 2 50 км ясно +30.0 +6.8 23 +29 +31 жарко 1006.0 958.5
З 1 н/о ясно +19.6 +8.8 50 +22 +22 комфорт 1008.5 959.2 +32.1
СВ 2 н/о 3/0
[Ci ing]
+17.0 +8.1 56 +17 +17 1009.6 959.8 +32.1
СВ 2 н/о 5/0
[Ci ing]
+14.4 +7.9 65 +14 +14 1010.0 959.8
СВ 2 50 км 4/0
[Ci fib]
+14.8 +8.8 67 +15 +15 1010.5 960.3
В 3 50 км 6/3 1000 м
[Cb calv Ac lent Ci ing]
+24.8 +8.8 36 +25 +30 комфорт 1009.5 961.0
ЮВ 3 50 км 6/4 1000 м
[Cb calv Ac lent Ci ing]
+28.2 +10.0 32 +28 +36 жарко 1008.1 960.2 +14.0
СЗ 10
{19}
50 км 9/6 1000 м
[Cb calv Ac lent Ci ing]
+23.0 +12.3 51 +26 +26 жарко 1010.9 962.1
З 3 50 км {ливн. дождь} 9/8 1000 м
[Cb cap Ac lent Ci ing]
+19.0 +14.8 77 +20 +21 1012.6 963.1
штиль 0 н/о 9/8 1000 м
[Cb cap Ac cuf Ci ing]
+18.2 +15.4 84 +18 +18 1014.4 964.7 +28.6
штиль 0 н/о 6/3 1000 м
[Cb calv Ac lent Ci ing]
+15.3 +12.0 81 +15 +15 1015.8 965.5 +28.6 0.4
штиль 0 н/о 4/0
[Ac lent Ci fib]
+12.6 +9.5 81 +12 +12 1016.3 965.5
СВ 1 50 км 5/3 1000 м
[Cb calv Ci fib]
+11.8 +8.6 81 +12 +12 1017.1 966.1
ЮВ 2 50 км 5/3 1000 м
[Cb calv Ci fib]
+20.0 +13.1 64 +22 +29 комфорт 1015.9 966.4
З 2 50 км 4/4 1000 м
[Cb calv]
+24.0 +6.7 33 +24 +35 комфорт 1014.5 965.6 +11.0
З 3 50 км 5/5 1000 м
[Cb calv]
+27.2 +7.3 28 +27 +32 жарко 1012.4 964.1
СЗ 3 50 км 3/3 1000 м
[Cb calv]
+26.6 +6.8 28 +26 +28 жарко 1011.4 963.1
С 1 н/о ясно +21.0 +7.2 41 +23 +23 комфорт 1012.7 963.4 +28.0
СВ 2 н/о ясно +18.6 +9.5 55 +20 +20 1013.8 964.1 +28.0
штиль 0 н/о ясно +16.0 +9.6 66 +16 +16 1014.7 964.5
штиль 0 50 км ясно +17.5 +11.6 68 +18 +19 1013.3 963.5
С 1 50 км ясно +24.4 +8.2 36 +25 +36 комфорт 1010.6 962.0
В 2 50 км ясно +28.4 +6.0 24 +27 +45 жарко 1007.8 959.9 +15.5
С 1 50 км 4/0
[Ci ing]
+29.3 +6.1 23 +28 +42 жарко 1004.6 957.0
ЮВ 1 50 км 9/0
[Ac lent Cs]
+29.0 +7.1 25 +28 +30 жарко 1002.7 955.2
С 1 н/о 9/5 1000 м
[Cb calv Ac lent Ci ing]
+19.0 +10.7 59 +21 +21 комфорт 1004.0 954.9 +30.0
СВ 1 н/о 9/5 1000 м
[Cb calv Ac lent Ci ing]
+17.4 +11.1 66 +18 +18 1002.9 953.6 +30.0
СВ 2 н/о 8/5 1000 м
[Cb calv Ac lent Ci ing]
+16.5 +11.3 71 +17 +17 1002.3 952.9
З 2 50 км 10/6 1000 м
[Cb cap Ac lent]
+15.2 +10.0 71 +15 +15 1003.1 953.4
ЮЗ 2 50 км 9/5 1000 м
[Cb cap Ac lent Ci ing]
+22.1 +11.6 51 +24 +27 комфорт 1003.6 955.0
З 1 50 км 10/6 1000 м
[Cb cap Ac lent]
+25.4 +11.2 41 +27 +28 жарко 1004.9 956.8 +14.8
ЮВ 3 50 км 8/5 1000 м
[Cb cap Ac lent Ci ing]
+27.8 +12.1 38 +29 +33 жарко 1003.8 956.1
штиль 0 50 км 5/3 1000 м
[Cb cap Ac cuf Ci ing]
+28.2 +11.3 35 +29 +31 жарко 1003.7 956.1
З 2 н/о 8/5 1000 м
[Cb calv Ac lent Ci ing]
+21.0 +9.0 46 +23 +23 комфорт 1006.1 957.2 +29.0
Ю 1 н/о 8/3 1000 м
[Cb calv Ac lent Ci ing]
+18.0 +11.9 68 +19 +19 1009.8 960.2 +29.0
СЗ 3 н/о 6/3 1000 м
[Cb calv Ac lent Ci ing]
+15.8 +10.4 70 +15 +15 1012.2 962.1
С 2 50 км 9/3 1000 м
[Cb calv Ac trans Ci ing]
+15.0 +9.7 71 +15 +15 1014.7 964.4
СЗ 6 50 км 6/3 1000 м
[Cb calv Ac trans Ci ing]
+20.9 +11.7 56 +23 +25 комфорт 1015.5 966.1
СЗ 4 50 км 8/4 1000 м
[Cb calv Ac lent Ci ing]
+23.6 +6.1 32 +24 +28 комфорт 1013.9 965.0 +14.7
СЗ 5 50 км 6/3 1000 м
[Cu med, cong Ac cuf Ci fib]
+26.3 +7.5 30 +26 +30 жарко 1011.6 963.2
С 6 50 км 4/1 1000 м
[Cu hum Ci fib]
+24.7 +9.4 38 +25 +26 комфорт 1010.8 962.2
СЗ 4 н/о 5/3 1000 м
[Cb calv Ac lent Ci ing]
+22.2 +9.9 46 +24 +24 комфорт 1011.0 962.0 +26.7
СЗ 3 н/о ясно +18.4 +10.1 58 +19 +19 1011.1 961.5 +26.7
СЗ 2 н/о 3/0
[Ci ing]
+16.2 +10.9 71 +16 +16 1010.8 960.9
ЮВ 3 50 км 6/0
[Ci ing]
+14.7 +8.9 68 +14 +15 1011.1 960.9
В 5 50 км 6/0
[Ci fib]
+18.0 +9.9 59 +18 +22 1010.9 961.3
ЮВ 3 50 км 9/0
[Cs]
+23.4 +8.5 39 +25 +37 комфорт 1008.9 960.2 +14.2
СЗ 1 50 км 9/0
[Cs]
+27.2 +8.7 31 +27 +39 жарко 1006.4 958.4
З 2 50 км 8/3 1000 м
[Cb calv Ac lent Ci ing]
+26.8 +9.4 33 +27 +28 жарко 1005.1 957.1
СВ 1 н/о 5/3 1000 м
[Sc diur, vesp Ci]
+20.8 +9.9 50 +24 +24 комфорт 1006.6 957.6 +28.0
Местоположение метеостанции Куршим (Восточно-Казахстанская область, Казахстан): широта 48.55 долгота 83.68 высота над уровнем моря 427 м.
В архиве по умолчанию представлена погода в Куршиме за последнюю неделю. Архивные данные за месяц целиком и за предыдущие месяцы, начиная с января 2011 года, Вы можете получить, выбрав интересующий диапазон дат из раскрывающегося списка и нажав кнопку "Найти!".
*Определитесь, кто Вы:
Внимание! Время в таблицах - всемирное. Для получения местного времени необходимо прибавить поправку, которая равна 5 ч.
Смотрите также архив погоды в соседних городах и на ближайших метеорологических станциях:
Партнеры нашего сайта:      
Пояснения к столбцам:
  • Ветер - указаны скорость ветра в м/с - средняя за 10 мин, порывы в срок и между сроками (в фигурных скобках) и направление, откуда дует ветер: С - северный,
  • СВ - северо-восточный, В - восточный, ЮВ - юго-восточный, Ю - южный, ЮЗ - юго-западный, З - западный, СЗ - северо-западный.
  • Видимость - горизонтальная дальность видимости в метрах или километрах. При видимости от 1 до 10 км при отсутствии осадков обычно наблюдается дымка, при ухудшении видимости до 1 км и менее - туман. В сухую погоду видимость может ухудшаться дымом, пылью или мглою.
  • Явления - указаны атмосферные явления, наблюдавшиеся в срок или в последний час перед сроком; фигурными скобками обозначены явления, наблюдавшиеся между сроками (за 1-3 часа до срока); квадратными скобками обозначены град или гололедные отложения с указанием их диаметра в мм.
  • Облачность - указаны через наклонную черту общая и нижняя облачность в баллах и высота нижней границы облаков в метрах; квадратными скобками обозначены формы облаков: Ci - перистые, Cs - перисто-слоистые, Cc - перисто-кучевые, Ac - высококучевые, As - высокослоистые, Sc - слоисто-кучевые, Ns - слоисто-дождевые, Cu - кучевые, Cb - кучево-дождевые. Подробнее классификацию облаков см. в Атласе облаков (PDF).
  • T - Температура воздуха - температура, измеренная на высоте 2 м над землей.
  • Td - Температура точки росы - температура, при понижении до которой содержащийся в воздухе водяной пар достигнет насыщения.
  • f - Относительная влажность воздуха - влажноcть воздуха, измеренная на высоте 2 м над землей.
  • Te - Эффективная температура - температура, которую ощущает одетый по сезону человек в тени. Характеристика душности погоды. При расчете учитывается влияние влажности воздуха и скорости ветра на теплоощущения человека.
  • Tes - Эффективная температура на солнце - температура, которую ощущает человек, с поправкой на солнечный нагрев. Характеристика знойности погоды. Зависит от высоты солнца над горизонтом, облачности и скорости ветра. Ночью, в пасмурную погоду, а также при ветре 12 м/с и более поправка равна нулю.
  • P - Атмосферное давление - приведенное к уровню моря атмосферное давление.
  • Po - Атмосферное давление - измеренное на уровне метеостанции атмосферное давление.
  • Tmin - Минимальная температура - минимум температуры воздуха на высоте 2 м над землей.
  • Tmax - Максимальная температура - максимум температуры воздуха на высоте 2 м над землей.
  • R - Количество осадков - Количество выпавших осадков за период времени, мм. При наведении курсора мыши на число - период времени, за который выпало указанное количество осадков.
  • R24 - Количество осадков - Количество выпавших осадков за 24 часа, мм.
  • S - Снежный покров - Высота снежного покрова, см. При наведении курсора мыши на число - состояние снежного покрова и степень покрытия местности в баллах.